Spearfish, SD

7:17 AM MST on November 24, 2017 (GMT -0700)
Black Hills-Ice

Weather History for KSPF - February, 2014

Change the Weather History Date:

Saturday, February 15, 2014

  Actual Average (KEFC) Record (KEFC)
Temperature  
Mean Temperature 36 °F -  
Max Temperature 44 °F 36 °F 61 °F (1961)
Min Temperature 28 °F 12 °F -21 °F (1978)
Degree Days  
Heating Degree Days 29    
Moisture  
Dew Point 25 °F    
Average Humidity 63    
Maximum Humidity 100    
Minimum Humidity 37    
Precipitation  
Precipitation 0.17 in - - ()
Sea Level Pressure  
Sea Level Pressure 29.86 in    
Wind  
Wind Speed 17 mph (West)    
Max Wind Speed 26 mph    
Max Gust Speed 40 mph    
Visibility 10 miles    
Events Rain    
Averages and records for this station are not official NWS values.
T = Trace of Precipitation, MM = Missing Value Source: NWS Daily Summary

Daily Weather History Graph

Daily Weather History Graph

Search for Another Location

Airport or City:

Trip Planner

Search our weather history database for the weather conditions in past years. The results will help you decide how hot, cold, wet, or windy it might be!

Date:

Astronomy

Feb. 15, 2014 Rise Set
Actual Time 7:54 AM CST 6:24 PM CST
Civil Twilight 7:25 AM CST 6:54 PM CST
Nautical Twilight 6:51 AM CST 7:28 PM CST
Astronomical Twilight 6:17 AM CST 8:01 PM CST
Moon 7:30 PM CST (2/15) 7:51 AM CST (2/15)
Length of Visible Light 11h 28m
Length of Day
10h 29m
Waxing Gibbous, 99% of the Moon is Illuminated
Feb 15
Waxing Gibbous
Feb 22
Last Quarter
Mar 1
New
Mar 8
First Quarter
Mar 16
Full

Hourly Weather History & Observations

Time (CST) Temp. Windchill Dew Point Humidity Pressure Visibility Wind Dir Wind Speed Gust Speed Precip Events Conditions
12:15 AM 42.8 °F 35.1 °F 28.4 °F 57% 29.66 in 10.0 mi West 16.1 mph 21.9 mph N/A   Overcast
12:35 AM 41.0 °F 31.6 °F 32.0 °F 70% 29.68 in 8.0 mi NW 20.7 mph 26.5 mph N/A Rain Light Rain
12:55 AM 39.2 °F 29.3 °F 32.0 °F 75% 29.68 in 8.0 mi WNW 20.7 mph 40.3 mph 0.02 in   Mostly Cloudy
1:15 AM 39.2 °F 28.7 °F 32.0 °F 75% 29.69 in 10.0 mi West 23.0 mph 34.5 mph N/A Rain Light Rain
1:35 AM 37.4 °F 25.6 °F 32.0 °F 81% 29.70 in 10.0 mi West 26.5 mph 36.8 mph N/A   Overcast
1:55 AM 37.4 °F 26.4 °F 32.0 °F 81% 29.72 in 10.0 mi West 23.0 mph 32.2 mph N/A Rain Light Rain
2:15 AM 35.6 °F 25.2 °F 32.0 °F 87% 29.72 in 6.0 mi West 18.4 mph 26.5 mph 0.02 in Rain Rain
2:35 AM 35.6 °F 25.2 °F 32.0 °F 87% 29.71 in 9.0 mi West 18.4 mph 24.2 mph 0.04 in Rain Light Rain
2:55 AM 35.6 °F 25.2 °F 32.0 °F 87% 29.71 in 10.0 mi West 18.4 mph 25.3 mph 0.05 in   Mostly Cloudy
3:15 AM 35.6 °F 24.0 °F 32.0 °F 87% 29.71 in 10.0 mi West 23.0 mph 29.9 mph N/A   Overcast
3:35 AM 35.6 °F 24.2 °F 32.0 °F 87% 29.72 in 10.0 mi West 21.9 mph 35.7 mph N/A   Overcast
3:55 AM 35.6 °F 26.2 °F 32.0 °F 87% 29.73 in 10.0 mi West 15.0 mph 26.5 mph N/A   Mostly Cloudy
4:15 AM 33.8 °F 24.3 °F 32.0 °F 93% 29.73 in 10.0 mi West 13.8 mph 21.9 mph N/A Rain Light Rain
4:35 AM 32.0 °F 21.2 °F 32.0 °F 100% 29.72 in 7.0 mi WSW 16.1 mph 20.7 mph 0.10 in Rain Light Rain
4:55 AM 35.6 °F 27.5 °F 32.0 °F 87% 29.71 in 10.0 mi West 11.5 mph 20.7 mph 0.10 in   Mostly Cloudy
5:15 AM 35.6 °F 26.6 °F 32.0 °F 87% 29.72 in 10.0 mi West 13.8 mph - N/A   Mostly Cloudy
5:35 AM 37.4 °F 28.2 °F 28.4 °F 70% 29.73 in 10.0 mi West 16.1 mph 23.0 mph N/A   Scattered Clouds
5:55 AM 37.4 °F 28.2 °F 28.4 °F 70% 29.74 in 10.0 mi West 16.1 mph 24.2 mph N/A   Partly Cloudy
6:15 AM 37.4 °F 28.2 °F 28.4 °F 70% 29.74 in 10.0 mi West 16.1 mph 23.0 mph N/A   Scattered Clouds
6:35 AM 37.4 °F 27.2 °F 28.4 °F 70% 29.75 in 10.0 mi West 19.6 mph 25.3 mph N/A   Scattered Clouds
6:55 AM 37.4 °F 27.5 °F 26.6 °F 65% 29.76 in 10.0 mi West 18.4 mph 25.3 mph N/A   Partly Cloudy
7:15 AM 37.4 °F 28.2 °F 26.6 °F 65% 29.78 in 10.0 mi West 16.1 mph 26.5 mph N/A   Clear
7:35 AM 35.6 °F 26.6 °F 26.6 °F 70% 29.78 in 10.0 mi West 13.8 mph 20.7 mph N/A   Partly Cloudy
7:55 AM 37.4 °F 28.5 °F 26.6 °F 65% 29.79 in 10.0 mi West 15.0 mph 19.6 mph N/A   Scattered Clouds
8:15 AM 37.4 °F 27.8 °F 24.8 °F 60% 29.81 in 10.0 mi West 17.3 mph 20.7 mph N/A   Scattered Clouds
8:35 AM 37.4 °F 28.2 °F 24.8 °F 60% 29.82 in 10.0 mi WNW 16.1 mph 25.3 mph N/A   Clear
8:55 AM 37.4 °F 28.9 °F 24.8 °F 60% 29.83 in 10.0 mi West 13.8 mph 20.7 mph N/A   Clear
9:15 AM 37.4 °F 27.8 °F 24.8 °F 60% 29.84 in 10.0 mi West 17.3 mph 27.6 mph N/A   Clear
9:35 AM 37.4 °F 27.5 °F 24.8 °F 60% 29.86 in 10.0 mi WNW 18.4 mph 27.6 mph N/A   Clear
9:55 AM 37.4 °F 28.2 °F 24.8 °F 60% 29.87 in 10.0 mi West 16.1 mph - N/A   Clear
10:15 AM 37.4 °F 28.2 °F 24.8 °F 60% 29.88 in 10.0 mi West 16.1 mph 26.5 mph N/A   Clear
10:35 AM 39.2 °F 30.8 °F 24.8 °F 56% 29.89 in 10.0 mi WNW 15.0 mph 26.5 mph N/A   Clear
10:55 AM 39.2 °F 29.8 °F 24.8 °F 56% 29.91 in 10.0 mi WNW 18.4 mph 36.8 mph N/A   Partly Cloudy
11:15 AM 39.2 °F 28.5 °F 23.0 °F 52% 29.92 in 10.0 mi WNW 24.2 mph 34.5 mph N/A   Partly Cloudy
11:35 AM 39.2 °F 29.0 °F 23.0 °F 52% 29.93 in 10.0 mi WNW 21.9 mph 31.1 mph N/A   Clear
11:55 AM 41.0 °F 31.6 °F 23.0 °F 49% 29.93 in 10.0 mi NW 20.7 mph 33.4 mph N/A   Partly Cloudy
12:15 PM 41.0 °F 32.5 °F 24.8 °F 53% 29.93 in 10.0 mi WNW 17.3 mph 29.9 mph N/A   Partly Cloudy
12:35 PM 41.0 °F 32.8 °F 23.0 °F 49% 29.93 in 10.0 mi WNW 16.1 mph 29.9 mph N/A   Clear
12:55 PM 42.8 °F 34.5 °F 24.8 °F 49% 29.93 in 10.0 mi WNW 18.4 mph 28.8 mph N/A   Partly Cloudy
1:15 PM 41.0 °F 31.4 °F 23.0 °F 49% 29.93 in 10.0 mi WNW 21.9 mph 32.2 mph N/A   Partly Cloudy
1:35 PM 42.8 °F 33.5 °F 23.0 °F 46% 29.93 in 10.0 mi NW 23.0 mph 28.8 mph N/A   Clear
1:55 PM 42.8 °F 34.5 °F 23.0 °F 46% 29.93 in 10.0 mi WNW 18.4 mph 31.1 mph N/A   Clear
2:15 PM 44.6 °F 36.6 °F 23.0 °F 43% 29.93 in 10.0 mi West 19.6 mph 32.2 mph N/A   Clear
2:35 PM 44.6 °F 36.9 °F 21.2 °F 39% 29.93 in 10.0 mi WNW 18.4 mph 29.9 mph N/A   Clear
2:55 PM 44.6 °F 37.8 °F 21.2 °F 39% 29.94 in 10.0 mi WNW 15.0 mph 27.6 mph N/A   Clear
3:15 PM 44.6 °F 36.4 °F 19.4 °F 37% 29.95 in 10.0 mi NW 20.7 mph 31.1 mph N/A   Clear
3:35 PM 44.6 °F 36.1 °F 19.4 °F 37% 29.95 in 10.0 mi NW 21.9 mph 26.5 mph N/A   Clear
3:55 PM 44.6 °F 36.9 °F 19.4 °F 37% 29.96 in 10.0 mi NW 18.4 mph 25.3 mph N/A   Clear
4:15 PM 42.8 °F 35.1 °F 19.4 °F 39% 29.97 in 10.0 mi WNW 16.1 mph 24.2 mph N/A   Clear
4:35 PM 42.8 °F 35.4 °F 19.4 °F 39% 29.97 in 10.0 mi NW 15.0 mph 23.0 mph N/A   Clear
4:55 PM 41.0 °F 32.8 °F 19.4 °F 42% 29.97 in 10.0 mi NW 16.1 mph 21.9 mph N/A   Clear
5:15 PM 41.0 °F 34.3 °F 19.4 °F 42% 29.97 in 10.0 mi NW 11.5 mph - N/A   Clear
5:35 PM 41.0 °F 35.2 °F 19.4 °F 42% 29.98 in 10.0 mi NW 9.2 mph - N/A   Clear
5:55 PM 39.2 °F 33.6 °F 19.4 °F 45% 29.97 in 10.0 mi WNW 8.1 mph - N/A   Clear
6:15 PM 35.6 °F 30.7 °F 19.4 °F 52% 29.97 in 10.0 mi NW 5.8 mph - N/A   Clear
6:35 PM 37.4 °F 33.8 °F 19.4 °F 48% 29.98 in 10.0 mi NW 4.6 mph - N/A   Clear
6:55 PM 32.0 °F 26.4 °F 21.2 °F 64% 29.98 in 10.0 mi SSW 5.8 mph - N/A   Clear
7:15 PM 32.0 °F 27.5 °F 21.2 °F 64% 29.99 in 10.0 mi SSW 4.6 mph - N/A   Clear
7:35 PM 32.0 °F 24.8 °F 23.0 °F 69% 30.00 in 10.0 mi SSW 8.1 mph - N/A   Clear
7:55 PM 30.2 °F 21.3 °F 23.0 °F 75% 30.00 in 10.0 mi SSW 10.4 mph - N/A   Clear
8:15 PM 32.0 °F 23.6 °F 21.2 °F 64% 30.00 in 10.0 mi South 10.4 mph - N/A   Clear
8:35 PM 28.4 °F 21.2 °F 21.2 °F 74% 29.99 in 10.0 mi South 6.9 mph - N/A   Clear
8:55 PM 28.4 °F 21.2 °F 21.2 °F 74% 29.97 in 10.0 mi SE 6.9 mph - N/A   Clear
9:15 PM 28.4 °F 23.3 °F 19.4 °F 69% 29.97 in 10.0 mi SSE 4.6 mph - N/A   Clear
9:35 PM 32.0 °F 24.8 °F 19.4 °F 60% 29.97 in 10.0 mi SSW 8.1 mph - N/A   Clear
9:55 PM 28.4 °F 24.6 °F 21.2 °F 74% 29.94 in 10.0 mi South 3.5 mph - N/A   Clear
10:15 PM 28.4 °F 21.2 °F 21.2 °F 74% 29.94 in 10.0 mi SSE 6.9 mph - N/A   Clear
10:35 PM 28.4 °F 23.3 °F 23.0 °F 80% 29.92 in 10.0 mi ESE 4.6 mph - N/A   Clear
10:55 PM 30.2 °F 24.3 °F 21.2 °F 69% 29.91 in 10.0 mi SE 5.8 mph - N/A   Clear
11:15 PM 30.2 °F 26.7 °F 23.0 °F 75% 29.91 in 10.0 mi ENE 3.5 mph - N/A   Mostly Cloudy
11:35 PM 32.0 °F 27.5 °F 21.2 °F 64% 29.89 in 10.0 mi SSE 4.6 mph - N/A   Overcast
11:55 PM 32.0 °F 28.7 °F 21.2 °F 64% 29.87 in 10.0 mi SE 3.5 mph - N/A   Scattered Clouds